Kezdőlap
METAR-TAF:

METAR-TAF

Repülőterek :

Musi clinic

Mankayane, Szváziföld

földrajzi szélesség: 26-43-20S, földrajzi hosszúság: 30-54-44E, magasság: 956 m

Jelenlegi meteorológiai megfigyelések

A jelentés 55 perccel ezelõtt készült, 01:00 UTC
Nyugati szél 2 kt
Hőmérséklet 6°C
Páratartalom 100%
Légköri nyomás 992 hPa

METAR: FDUS 230100Z AUTO 28002KT //// // ////// 06/06 Q0992

Idő: 03:55 (01:55 UTC)


TAF: hiányzik

Meteorológiai megfigyelések és előrejelzések több, mint 4000 repülőtéren (METAR és TAF jelentéseket).

A térképen piros és sárga pontok jelzik az elérhető meteorológiai állomásokat.

Mozgassa az egeret a pont fölött, hogy megjelenjen az állomás neve.

Azután kattintson az időjárási megfigyelések és előrejelzések megtekintéséhez.

A térkép megváltoztatása: kattintson a fekete keresztel jelölt zöld gombra ráközelítéshez, a vonallal jelölt zöld gombra távolításhoz, vagy a zöld nyilakra a szomszédos térképek eléréséhez.


METAR-TAF: